Hourly Data Report for October 16, 2013

All times are specified in Local Standard Time (LST). Add 1 hour to adjust for Daylight Saving Time where and when it is observed.

MONCTON INTL A
NEW BRUNSWICK

46°06'44.000" N
64°40'43.000" W
70.70 m
8103201
71705
YQM

Download Data

Hourly Data (October 2013)
Hourly Data Report for October 16, 2013
Temp Definition
°C
Dew Point Temp Definition
°C
Rel Hum Definition
%
Wind Dir Definition
10's deg

Wind Spd Definition
km/h
Visibility Definition
km
Stn Press Definition
kPa
Hmdx Definition


Wind Chill Definition


Weather Definition


TIME
00:00 Legend Double Dagger 5.3 1.8 78 14 11 24.1 101.68     LegendNANA
01:00 Legend Double Dagger 5.2 1.7 78 13 9 24.1 101.68     LegendNANA
02:00 Legend Double Dagger 4.4 1.9 84 13 10 24.1 101.65     Mostly Cloudy
03:00 Legend Double Dagger 5.4 2.8 83 12 11 24.1 101.62     LegendNANA
04:00 Legend Double Dagger 5.7 2.5 80 12 16 24.1 101.60     LegendNANA
05:00 Legend Double Dagger 4.3 2.5 88 10 12 24.1 101.61     Mostly Cloudy
06:00 Legend Double Dagger 3.0 1.7 91 9 9 24.1 101.59     LegendNANA
07:00 Legend Double Dagger 3.1 1.6 90 13 6 24.1 101.60     LegendNANA
08:00 Legend Double Dagger 8.8 3.7 70 14 17 24.1 101.62     Mostly Cloudy
09:00 Legend Double Dagger 10.5 4.5 66 17 15 24.1 101.61     LegendNANA
10:00 Legend Double Dagger 11.8 7.2 73 17 17 24.1 101.58     LegendNANA
11:00 Legend Double Dagger 12.2 7.3 72 15 13 24.1 101.51     Mostly Cloudy
12:00 Legend Double Dagger 14.3 8.5 68 12 16 24.1 101.42     LegendNANA
13:00 Legend Double Dagger 15.0 8.3 64 14 26 24.1 101.29     LegendNANA
14:00 Legend Double Dagger 15.1 9.1 67 16 21 24.1 101.26     Mostly Cloudy
15:00 Legend Double Dagger 14.4 9.3 71 17 22 24.1 101.21     LegendNANA
16:00 Legend Double Dagger 14.1 9.4 73 15 18 24.1 101.12     LegendNANA
17:00 Legend Double Dagger 13.7 10.0 78 14 18 24.1 101.08     Cloudy
18:00 Legend Double Dagger 12.6 10.7 88 14 13 19.3 101.06     Rain Showers
19:00 Legend Double Dagger 12.2 11.4 95 13 22 19.3 100.93     Rain Showers
20:00 Legend Double Dagger 12.1 11.2 94 15 19 24.1 100.92     Rain Showers
21:00 Legend Double Dagger 12.2 11.4 95 12 20 19.3 100.83     Moderate Rain Showers
22:00 Legend Double Dagger 12.0 11.4 96 12 17 24.1 100.73     Rain Showers
23:00 Legend Double Dagger 11.9 11.4 97 12 15 24.1 100.59     Rain Showers

Notes on Data Quality.

Legend

  • E = Estimated
  • M = Missing
  • NA = Not Available
  • ‡ = Partner data that is not subject to review by the National Climate Archives
Date modified: